Location: Bonny Doon Airfield
(37.0704°N, 122.1252°W)
Time: 18:05:26
(UTC-08:00)

Vanguard 1 Rocket - Pass Details

Date: 31 October 2017
Orbit: 655 x 4222 km, 34.3° (Epoch: 18 November)

Event Time Altitude Azimuth Distance (km) Brightness Sun altitude
Rises 04:58:31 0° 242° (WSW) 7,729 - -31.1°
Reaches altitude 10° 05:04:31 10° 240° (WSW) 6,235 - -29.9°
Exits shadow 05:13:09 31° 232° (SW) 3,928 10.1 -28.2°
Maximum altitude 05:21:27 63° 165° (SSE) 2,167 9.2 -26.5°
Drops below altitude 10° 05:29:56 10° 87° (E) 3,321 11.3 -24.8°
Sets 05:32:09 0° 83° (E) 4,011 12.1 -24.4°
